Regional Weather Roundup
Issued by NWS

Home | Current Version | Previous Version | Text Only | Print | Product List | Glossary Off
Versions: 1 2 3 4 5 6 7 8 9 10 11 12 13 14 15 16 17 18 19 20 21 22 23 24 25 26 27 28 29 30 31 32 33 34 35 36 37 38 39 40 41 42 43 44 45 46 47 48 49 50

000
ASUS43 KFSD 182302
RWRSD

WEATHER ROUNDUP FOR SOUTH DAKOTA
NATIONAL WEATHER SERVICE SIOUX FALLS SD
600 PM CDT THU SEP 18 2014

NOTE: "FAIR" INDICATES FEW OR NO CLOUDS BELOW 12,000 FEET WITH NO
SIGNIFICANT WEATHER AND/OR OBSTRUCTIONS TO VISIBILITY.


SDZ001>005-009-010-012>017-190000-
NORTHWEST AND NORTH CENTRAL SOUTH DAKOTA

CITY           SKY/WX    TMP DP  RH WIND       PRES   REMARKS
FAITH            N/A     81  63  54 S13       29.73F
MOBRIDGE       PTSUNNY   78  62  57 S12       29.71F
$$

SDZ012>016-024>037-041>051-057-063-072>074-190000-
SOUTHWEST AND SOUTH CENTRAL SOUTH DAKOTA

CITY           SKY/WX    TMP DP  RH WIND       PRES   REMARKS
RAPID CTY ARPT SUNNY     89  50  26 SE10      29.73F
PIERRE         MOSUNNY   81  63  54 S20       29.74F
CUSTER         MOSUNNY   83  39  21 SW10      29.91F
ELLSWORTH AFB  MOSUNNY   91  49  23 SE13      29.73F
PHILIP         MOSUNNY   87  65  47 SE18      29.71F
PINE RIDGE     SUNNY     87  53  31 S15       29.78F
WINNER         FAIR      82  60  47 S14G24    29.80F
$$

SDZ004>011-016>023-039-040-190000-
NORTHEAST SOUTH DAKOTA

CITY           SKY/WX    TMP DP  RH WIND       PRES   REMARKS
ABERDEEN       SUNNY     76  60  57 S18G28    29.81F
WATERTOWN      SUNNY     72  56  57 S15G25    29.88F
SISSETON         N/A     76  59  55 S14       29.84F
$$

SDZ017-020-022-023-036>040-048>070-190000-
SOUTHEAST SOUTH DAKOTA

CITY           SKY/WX    TMP DP  RH WIND       PRES   REMARKS
SIOUX FALLS    MOSUNNY   74  54  49 S14       29.93S
HURON          SUNNY     76  59  55 S15G23    29.83F
CHAMBERLAIN    SUNNY     76  62  60 SE16      29.81F
MITCHELL       SUNNY     76  58  53 SE13      29.87F
YANKTON        SUNNY     73  57  56 SE16      29.90F
$$

ABBREVIATIONS USED IN REMARKS
   TC - TEMPERATURE IN CELSIUS
  WCI - WIND CHILL INDEX
   HX - HEAT INDEX
  VSB - VISIBILITY




USA.gov is the U.S. government's official web portal to all federal, state and local government web resources and services.